GW3318 Weather Reports


time (UTC)temp
C
wind
direction
speed
KPH
gust
KPH
rain 1hr
cm
rain 24hr
cm
rain mn
cm
humidity
%
barometer
mb
20260508050315 30 296 1.6 3.2 0.00 0.00 0.00 71 1011.5
20260508045816 31 304 1.6 4.8 0.00 0.00 0.00 70 1011.6
20260508045317 31 296 0.0 3.2 0.00 0.00 0.00 70 1011.6
20260508044816 31 258 0.0 4.8 0.00 0.00 0.00 70 1011.6
20260508044315 31 294 1.6 4.8 0.00 0.00 0.00 69 1011.6
20260508043815 31 291 3.2 8.0 0.00 0.00 0.00 69 1011.7
20260508043315 31 237 3.2 4.8 0.00 0.00 0.00 69 1011.7
20260508042816 31 225 3.2 9.7 0.00 0.00 0.00 70 1011.8
20260508042315 31 222 3.2 8.0 0.00 0.00 0.00 69 1011.8
20260508041817 31 242 3.2 8.0 0.00 0.00 0.00 69 1011.8
20260508040316 31 236 3.2 4.8 0.00 0.00 0.00 69 1011.9
20260508035816 31 246 0.0 4.8 0.00 0.00 0.00 68 1011.9
20260508035316 31 297 1.6 4.8 0.00 0.00 0.00 68 1011.9
20260508034816 31 80 1.6 8.0 0.00 0.00 0.00 69 1012.0
20260508034315 31 206 0.0 3.2 0.00 0.00 0.00 69 1012.0
20260508033316 30 249 3.2 4.8 0.00 0.00 0.00 70 1012.1
20260508032816 30 242 3.2 9.7 0.00 0.00 0.00 71 1012.2
20260508032316 30 232 1.6 4.8 0.00 0.00 0.00 71 1012.3
20260508031816 30 250 3.2 4.8 0.00 0.00 0.00 72 1012.4
20260508031317 30 246 4.8 11.3 0.00 0.00 0.00 73 1012.5
20260508030816 30 248 1.6 4.8 0.00 0.00 0.00 74 1012.6
20260508030316 30 245 1.6 8.0 0.00 0.00 0.00 73 1012.7
20260508025816 30 228 3.2 8.0 0.00 0.00 0.00 74 1012.8
20260508025316 30 235 3.2 4.8 0.00 0.00 0.00 74 1012.9
20260508024815 30 275 1.6 8.0 0.00 0.00 0.00 73 1013.0
20260508024316 30 242 1.6 8.0 0.00 0.00 0.00 74 1013.0
20260508023815 30 232 0.0 4.8 0.00 0.00 0.00 74 1013.2
20260508022815 30 354 1.6 8.0 0.00 0.00 0.00 74 1013.3
20260508021815 29 318 1.6 4.8 0.00 0.00 0.00 74 1013.3
20260508021315 29 270 1.6 4.8 0.00 0.00 0.00 75 1013.4
20260508020315 29 19 1.6 4.8 0.00 0.00 0.00 74 1013.5
20260508015816 29 24 3.2 4.8 0.00 0.00 0.00 75 1013.6
20260508014815 30 298 0.0 3.2 0.00 0.00 0.00 73 1013.6
20260508014317 30 257 1.6 3.2 0.00 0.00 0.00 73 1013.6
20260508013815 29 301 0.0 1.6 0.00 0.00 0.00 73 1013.6
20260508013316 30 297 1.6 4.8 0.00 0.00 0.00 73 1013.6
20260508011815 28 252 0.0 4.8 0.00 0.00 0.00 78 1013.6
20260508011315 27 260 1.6 3.2 0.00 0.00 0.00 79 1013.4
20260508010815 27 310 0.0 3.2 0.00 0.00 0.00 79 1013.2
20260508010315 27 224 0.0 1.6 0.00 0.00 0.00 80 1013.3
20260508005816 27 223 0.0 3.2 0.00 0.00 0.00 81 1013.1
20260508005315 27 235 3.2 4.8 0.00 0.00 0.00 80 1013.1
20260508004815 27 231 0.0 4.8 0.00 0.00 0.00 80 1013.1
20260508004315 27 222 0.0 3.2 0.00 0.00 0.00 80 1013.1
20260508003815 27 229 0.0 1.6 0.00 0.00 0.00 81 1013.0
20260508003316 27 231 0.0 1.6 0.00 0.00 0.00 81 1013.1
20260508002816 27 258 0.0 0.0 0.00 0.00 0.00 81 1013.1
20260508002315 27 258 0.0 1.6 0.00 0.00 0.00 80 1013.1
20260508001815 27 258 0.0 0.0 0.00 0.00 0.00 80 1013.1
20260508001315 27 258 0.0 0.0 0.00 0.00 0.00 80 1013.2
20260508000315 27 258 0.0 3.2 0.00 0.00 0.00 81 1013.2
20260507235815 27 257 0.0 1.6 0.00 0.00 0.00 80 1013.1
20260507235315 27 257 0.0 1.6 0.00 0.00 0.00 80 1013.0
20260507234815 27 258 0.0 1.6 0.00 0.00 0.00 81 1013.0
20260507233816 26 268 0.0 0.0 0.00 0.00 0.00 83 1012.9
20260507233315 26 268 0.0 0.0 0.00 0.00 0.00 84 1012.8
20260507232815 25 268 0.0 0.0 0.00 0.00 0.00 86 1012.8
20260507232315 25 268 0.0 0.0 0.00 0.00 0.00 86 1012.9
20260507231815 25 270 0.0 0.0 0.00 0.00 0.00 87 1012.7
20260507231315 25 270 0.0 0.0 0.00 0.00 0.00 89 1012.8
20260507230315 24 272 0.0 0.0 0.00 0.00 0.00 90 1012.8
20260507225816 23 272 0.0 0.0 0.00 0.00 0.00 91 1012.7
20260507225315 23 272 0.0 0.0 0.00 0.00 0.00 93 1012.7
20260507224315 23 272 0.0 0.0 0.00 0.00 0.00 93 1012.6
20260507223815 23 272 0.0 0.0 0.00 0.00 0.00 93 1012.5
20260507223314 23 272 0.0 0.0 0.00 0.00 0.00 93 1012.3
20260507222815 23 272 0.0 0.0 0.00 0.00 0.00 93 1012.3
20260507222315 23 272 0.0 0.0 0.00 0.00 0.00 93 1012.1
20260507221815 22 255 0.0 0.0 0.00 0.00 0.00 94 1012.1
20260507221315 22 255 0.0 0.0 0.00 0.00 0.00 94 1012.1
20260507220816 22 255 0.0 0.0 0.00 0.00 0.00 94 1012.0
20260507215815 22 255 0.0 0.0 0.00 0.00 0.00 94 1012.0
20260507215315 22 255 0.0 0.0 0.00 0.00 0.00 93 1011.9
20260507214815 23 255 0.0 0.0 0.00 0.00 0.00 93 1011.9
20260507214315 23 255 0.0 0.0 0.00 0.00 0.00 93 1011.8
20260507213815 23 255 0.0 0.0 0.00 0.00 0.00 94 1011.8
20260507213315 23 255 0.0 0.0 0.00 0.00 0.00 93 1011.8
20260507212314 22 255 0.0 0.0 0.00 0.00 0.00 94 1011.7
20260507211814 22 255 0.0 0.0 0.00 0.00 0.00 94 1011.6
20260507211314 23 255 0.0 0.0 0.00 0.00 0.00 94 1011.5
20260507210314 23 255 0.0 0.0 0.00 0.00 0.00 94 1011.4
20260507205315 23 255 0.0 0.0 0.00 0.00 0.00 93 1011.3
20260507204815 23 255 0.0 0.0 0.00 0.00 0.00 93 1011.1
20260507204314 23 255 0.0 0.0 0.00 0.00 0.00 93 1011.0
20260507203815 23 255 0.0 0.0 0.00 0.00 0.00 93 1010.9
20260507203315 23 255 0.0 0.0 0.00 0.00 0.00 93 1010.9
20260507202815 23 255 0.0 0.0 0.00 0.00 0.00 93 1010.8
20260507201815 23 255 0.0 0.0 0.00 0.00 0.00 92 1010.8
20260507201314 23 255 0.0 0.0 0.00 0.00 0.00 92 1010.8
20260507200815 23 255 0.0 0.0 0.00 0.00 0.00 91 1010.7
20260507200315 23 255 0.0 0.0 0.00 0.00 0.00 91 1010.7
20260507195815 23 255 0.0 0.0 0.00 0.00 0.00 91 1010.7
20260507195315 23 255 0.0 0.0 0.00 0.00 0.00 91 1010.6
20260507194314 23 255 0.0 0.0 0.00 0.00 0.00 92 1010.5
20260507193816 23 255 0.0 0.0 0.00 0.00 0.00 91 1010.5
20260507192815 23 258 0.0 0.0 0.00 0.00 0.00 92 1010.5
20260507192315 23 258 0.0 0.0 0.00 0.00 0.00 92 1010.6
20260507191815 23 258 0.0 0.0 0.00 0.00 0.00 92 1010.7
20260507191315 23 258 0.0 0.0 0.00 0.00 0.00 91 1010.7
20260507190815 23 258 0.0 0.0 0.00 0.00 0.00 91 1010.8
20260507190315 23 258 0.0 0.0 0.00 0.00 0.00 92 1010.9
20260507185815 23 255 0.0 1.6 0.00 0.00 0.00 92 1011.0
20260507185315 23 255 0.0 0.0 0.00 0.00 0.00 91 1011.0
20260507184815 23 255 0.0 1.6 0.00 0.00 0.00 91 1011.1
20260507184315 23 255 0.0 0.0 0.00 0.00 0.00 91 1011.1
20260507183815 23 255 0.0 0.0 0.00 0.00 0.00 91 1011.0
20260507183315 23 255 0.0 1.6 0.00 0.00 0.00 91 1011.1
20260507182815 23 231 0.0 1.6 0.00 0.00 0.00 90 1011.1
20260507182315 23 244 0.0 0.0 0.00 0.00 0.00 91 1011.2
20260507181815 23 246 0.0 0.0 0.00 0.00 0.00 91 1011.4
20260507181315 23 246 0.0 0.0 0.00 0.00 0.00 91 1011.5
20260507180815 23 246 0.0 0.0 0.00 0.00 0.00 91 1011.6
20260507174814 23 246 0.0 0.0 0.00 0.00 0.00 91 1011.6
20260507173315 23 246 0.0 0.0 0.00 0.00 0.00 91 1011.7
20260507172815 24 246 0.0 0.0 0.00 0.00 0.00 90 1011.7
20260507172315 24 246 0.0 0.0 0.00 0.00 0.00 90 1011.6
20260507171814 24 246 0.0 0.0 0.00 0.00 0.00 90 1011.6
20260507171315 24 246 0.0 0.0 0.00 0.00 0.00 90 1011.7
20260507170815 24 246 0.0 0.0 0.00 0.00 0.00 90 1011.6
20260507170315 24 246 0.0 0.0 0.00 0.00 0.00 89 1011.7
20260507165314 24 246 0.0 0.0 0.00 0.00 0.00 89 1011.8
20260507164814 24 246 0.0 0.0 0.00 0.00 0.00 89 1011.9
20260507164315 24 246 0.0 0.0 0.00 0.00 0.00 89 1011.9
20260507163815 24 246 0.0 0.0 0.00 0.00 0.00 89 1011.9
20260507162814 24 246 0.0 0.0 0.00 0.00 0.00 89 1012.0
20260507162315 24 246 0.0 0.0 0.00 0.00 0.00 89 1012.1
20260507161814 24 246 0.0 0.0 0.00 0.00 0.00 88 1012.0
20260507161314 24 246 0.0 0.0 0.00 0.00 0.00 89 1012.0
20260507160814 24 245 0.0 0.0 0.00 0.00 0.00 89 1011.9
20260507160315 24 245 0.0 0.0 0.00 0.00 0.00 89 1012.2
20260507155814 24 245 0.0 0.0 0.00 0.00 0.00 88 1012.1
20260507155315 25 245 0.0 0.0 0.00 0.00 0.00 88 1012.1
20260507154814 25 230 0.0 0.0 0.00 0.00 0.00 88 1012.0
20260507154314 25 230 0.0 0.0 0.00 0.00 0.00 88 1012.1
20260507153814 25 230 0.0 0.0 0.00 0.00 0.00 88 1012.1
20260507152815 25 230 0.0 0.0 0.00 0.00 0.00 88 1012.2
20260507152314 25 230 0.0 0.0 0.00 0.00 0.00 88 1012.2
20260507151314 24 239 0.0 0.0 0.00 0.00 0.00 89 1012.2
20260507150814 24 239 0.0 0.0 0.00 0.00 0.00 89 1012.2
20260507150314 24 239 0.0 0.0 0.00 0.00 0.00 89 1012.2
20260507145814 24 239 0.0 0.0 0.00 0.00 0.00 88 1012.3
20260507145314 24 239 0.0 0.0 0.00 0.00 0.00 88 1012.4
20260507144814 25 239 0.0 1.6 0.00 0.00 0.00 88 1012.4
20260507144314 25 239 0.0 0.0 0.00 0.00 0.00 88 1012.3
20260507143314 25 239 0.0 0.0 0.00 0.00 0.00 88 1012.2
20260507142314 25 223 0.0 0.0 0.00 0.00 0.00 88 1012.2
20260507141814 25 223 0.0 0.0 0.00 0.00 0.00 88 1012.1
20260507141314 25 223 0.0 0.0 0.00 0.00 0.00 88 1011.9
20260507140314 25 223 0.0 0.0 0.00 0.00 0.00 88 1011.7
20260507135814 25 223 0.0 0.0 0.00 0.00 0.00 88 1011.8
20260507135314 25 223 0.0 0.0 0.00 0.00 0.00 88 1011.7
20260507134815 25 223 0.0 0.0 0.00 0.00 0.00 88 1011.5
20260507134314 25 222 0.0 1.6 0.00 0.00 0.00 88 1011.5
20260507133814 25 203 0.0 1.6 0.00 0.00 0.00 87 1011.4
20260507133314 25 203 0.0 1.6 0.00 0.00 0.00 87 1011.3
20260507132815 25 203 0.0 0.0 0.00 0.00 0.00 87 1011.2
20260507132314 25 203 0.0 1.6 0.00 0.00 0.00 87 1011.2
20260507131814 25 229 0.0 1.6 0.00 0.00 0.00 87 1011.2
20260507131314 25 231 0.0 0.0 0.00 0.00 0.00 87 1011.0
20260507130814 25 231 0.0 0.0 0.00 0.00 0.00 86 1011.1
20260507130314 25 231 0.0 0.0 0.00 0.00 0.00 86 1011.0
20260507125814 25 231 0.0 1.6 0.00 0.00 0.00 86 1010.8
20260507125314 25 293 0.0 0.0 0.00 0.00 0.00 86 1010.9
20260507124814 25 293 0.0 0.0 0.00 0.00 0.00 86 1010.9
20260507124314 25 293 0.0 0.0 0.00 0.00 0.00 86 1010.8
20260507123314 25 296 0.0 3.2 0.00 0.00 0.00 85 1010.5
20260507122814 26 216 0.0 0.0 0.00 0.00 0.00 84 1010.4
20260507122314 26 229 0.0 0.0 0.00 0.00 0.00 84 1010.5
20260507121814 26 229 0.0 0.0 0.00 0.00 0.00 84 1010.4
20260507121314 26 229 0.0 0.0 0.00 0.00 0.00 84 1010.3
20260507120814 26 229 0.0 1.6 0.00 0.00 0.00 83 1010.3
20260507120314 26 226 0.0 0.0 0.00 0.00 0.00 83 1010.3
20260507115814 26 226 0.0 1.6 0.00 0.00 0.00 83 1010.2
20260507115314 26 227 1.6 3.2 0.00 0.00 0.00 83 1010.1
20260507114814 26 237 0.0 1.6 0.00 0.00 0.00 82 1010.0
20260507113813 26 237 0.0 0.0 0.00 0.00 0.00 82 1009.9
20260507113314 26 237 0.0 0.0 0.00 0.00 0.00 81 1009.7
20260507112814 26 237 0.0 0.0 0.00 0.00 0.00 81 1009.6
20260507112314 26 237 0.0 1.6 0.00 0.00 0.00 80 1009.5
20260507111814 27 237 1.6 4.8 0.00 0.00 0.00 80 1009.6
20260507111313 27 248 0.0 1.6 0.00 0.00 0.00 80 1009.6
20260507110814 27 258 0.0 0.0 0.00 0.00 0.00 80 1009.6
20260507110314 27 258 0.0 1.6 0.00 0.00 0.00 79 1009.6
20260507105314 27 311 0.0 0.0 0.00 0.00 0.00 79 1009.5
20260507104814 27 312 0.0 3.2 0.00 0.00 0.00 79 1009.5
20260507104315 27 235 0.0 1.6 0.00 0.00 0.00 78 1009.6
20260507103814 27 235 0.0 1.6 0.00 0.00 0.00 78 1009.7
20260507103314 27 130 1.6 9.7 0.00 0.00 0.00 77 1009.6
20260507102814 28 28 6.4 12.9 0.00 0.00 0.00 77 1009.4
20260507102314 28 88 1.6 8.0 0.00 0.00 0.00 76 1009.4
20260507101814 28 60 1.6 4.8 0.00 0.00 0.00 76 1009.4
20260507101315 28 160 1.6 9.7 0.00 0.00 0.00 75 1009.2
20260507100314 29 119 3.2 11.3 0.00 0.00 0.00 74 1009.3
20260507095814 29 9 4.8 9.7 0.00 0.00 0.00 73 1009.1
20260507095316 31 215 3.2 3.2 0.00 0.00 0.00 68 1011.0